Time,TemperatureF,DewpointF,PressureIn,WindDirection,WindDirectionDegrees,WindSpeedMPH,WindSpeedGustMPH,Humidity,HourlyPrecipIn,Conditions,Clouds,dailyrainin,SoftwareType,DateUTC
2013-02-05 00:01:00,47.0,33.0,-100.00,SW,233,3.0,4.0,58,-99.99,,,-99.99,,2013-02-05 08:01:00,
2013-02-05 00:11:00,47.0,32.0,-100.00,SW,219,3.0,5.0,56,-99.99,,,-99.99,,2013-02-05 08:11:00,
2013-02-05 00:21:00,46.0,31.0,-100.00,WSW,241,2.0,3.0,56,-99.99,,,-99.99,,2013-02-05 08:21:00,
2013-02-05 00:31:00,46.0,31.0,-100.00,WSW,243,3.0,5.0,56,-99.99,,,-99.99,,2013-02-05 08:31:00,
2013-02-05 00:41:00,46.0,31.0,-100.00,WSW,246,4.0,5.0,55,-99.99,,,-99.99,,2013-02-05 08:41:00,
2013-02-05 00:52:00,47.0,31.0,-100.00,WSW,241,3.0,4.0,53,-99.99,,,-99.99,,2013-02-05 08:52:00,
2013-02-05 01:02:00,46.0,30.0,-100.00,WSW,243,3.0,5.0,54,-99.99,,,-99.99,,2013-02-05 09:02:00,
2013-02-05 01:11:00,47.0,31.0,-100.00,WSW,237,2.0,4.0,54,-99.99,,,-99.99,,2013-02-05 09:11:00,
2013-02-05 01:21:00,47.0,31.0,-100.00,SW,227,3.0,5.0,54,-99.99,,,-99.99,,2013-02-05 09:21:00,
2013-02-05 01:31:00,48.0,32.0,-100.00,SW,226,2.0,4.0,53,-99.99,,,-99.99,,2013-02-05 09:31:00,
2013-02-05 01:42:00,48.0,32.0,-100.00,SW,221,2.0,4.0,54,-99.99,,,-99.99,,2013-02-05 09:42:00,
2013-02-05 01:51:00,49.0,32.0,-100.00,SW,215,3.0,4.0,51,-99.99,,,-99.99,,2013-02-05 09:51:00,
2013-02-05 02:01:00,48.0,32.0,-100.00,SW,215,2.0,4.0,53,-99.99,,,-99.99,,2013-02-05 10:01:00,
2013-02-05 02:11:00,48.0,32.0,-100.00,SW,225,2.0,4.0,54,-99.99,,,-99.99,,2013-02-05 10:11:00,
2013-02-05 02:21:00,48.0,33.0,-100.00,SW,225,3.0,6.0,56,-99.99,,,-99.99,,2013-02-05 10:21:00,
2013-02-05 02:31:00,49.0,33.0,-100.00,SW,225,3.0,5.0,54,-99.99,,,-99.99,,2013-02-05 10:31:00,
2013-02-05 02:42:00,48.0,33.0,-100.00,SW,235,3.0,5.0,55,-99.99,,,-99.99,,2013-02-05 10:42:00,
2013-02-05 02:52:00,46.0,32.0,-100.00,WSW,238,3.0,5.0,59,-99.99,,,-99.99,,2013-02-05 10:52:00,
2013-02-05 03:01:00,46.0,32.0,-100.00,WSW,248,4.0,5.0,58,-99.99,,,-99.99,,2013-02-05 11:01:00,
2013-02-05 03:11:00,47.0,33.0,-100.00,WSW,247,3.0,5.0,57,-99.99,,,-99.99,,2013-02-05 11:11:00,
2013-02-05 03:22:00,48.0,32.0,-100.00,SW,224,3.0,5.0,53,-99.99,,,-99.99,,2013-02-05 11:22:00,
2013-02-05 03:32:00,48.0,30.0,-100.00,SW,231,3.0,5.0,50,-99.99,,,-99.99,,2013-02-05 11:32:00,
2013-02-05 03:41:00,47.0,29.0,-100.00,WSW,242,3.0,4.0,50,-99.99,,,-99.99,,2013-02-05 11:41:00,
2013-02-05 03:52:00,47.0,28.0,-100.00,SW,233,3.0,4.0,47,-99.99,,,-99.99,,2013-02-05 11:52:00,
2013-02-05 04:01:00,47.0,28.0,-100.00,SW,233,3.0,5.0,47,-99.99,,,-99.99,,2013-02-05 12:01:00,
2013-02-05 04:12:00,47.0,27.0,-100.00,SW,229,4.0,6.0,46,-99.99,,,-99.99,,2013-02-05 12:12:00,
2013-02-05 04:21:00,47.0,28.0,-100.00,SW,230,3.0,7.0,47,-99.99,,,-99.99,,2013-02-05 12:21:00,
2013-02-05 04:31:00,46.0,27.0,-100.00,WSW,257,2.0,4.0,47,-99.99,,,-99.99,,2013-02-05 12:31:00,
2013-02-05 04:41:00,46.0,27.0,-100.00,WSW,257,2.0,4.0,47,-99.99,,,-99.99,,2013-02-05 12:41:00,
2013-02-05 04:52:00,45.0,27.0,-100.00,WSW,248,2.0,4.0,48,-99.99,,,-99.99,,2013-02-05 12:52:00,
2013-02-05 05:01:00,44.0,27.0,-100.00,West,262,3.0,5.0,50,-99.99,,,-99.99,,2013-02-05 13:01:00,
2013-02-05 05:11:00,42.0,27.0,-100.00,WSW,255,1.0,3.0,56,-99.99,,,-99.99,,2013-02-05 13:11:00,
2013-02-05 05:21:00,42.0,27.0,-100.00,WSW,249,1.0,3.0,54,-99.99,,,-99.99,,2013-02-05 13:21:00,
2013-02-05 05:31:00,43.0,27.0,-100.00,WSW,252,1.0,3.0,53,-99.99,,,-99.99,,2013-02-05 13:31:00,
2013-02-05 05:41:00,44.0,28.0,-100.00,West,259,1.0,1.0,52,-99.99,,,-99.99,,2013-02-05 13:41:00,
2013-02-05 05:51:00,42.0,27.0,-100.00,WSW,252,1.0,1.0,56,-99.99,,,-99.99,,2013-02-05 13:51:00,
2013-02-05 06:01:00,41.0,27.0,-100.00,West,269,1.0,2.0,57,-99.99,,,-99.99,,2013-02-05 14:01:00,
2013-02-05 06:12:00,41.0,27.0,-100.00,South,190,1.0,1.0,58,-99.99,,,-99.99,,2013-02-05 14:12:00,
2013-02-05 06:21:00,41.0,28.0,-100.00,WSW,251,1.0,2.0,59,-99.99,,,-99.99,,2013-02-05 14:21:00,
2013-02-05 06:31:00,41.0,28.0,-100.00,WSW,254,1.0,1.0,59,-99.99,,,-99.99,,2013-02-05 14:31:00,
2013-02-05 06:41:00,40.0,28.0,-100.00,West,270,1.0,1.0,62,-99.99,,,-99.99,,2013-02-05 14:41:00,
2013-02-05 06:52:00,40.0,28.0,-100.00,WSW,241,1.0,2.0,62,-99.99,,,-99.99,,2013-02-05 14:52:00,
2013-02-05 07:01:00,39.0,27.0,-100.00,WSW,246,1.0,2.0,63,-99.99,,,-99.99,,2013-02-05 15:01:00,
2013-02-05 07:11:00,39.0,28.0,-100.00,WSW,251,1.0,1.0,64,-99.99,,,-99.99,,2013-02-05 15:11:00,
2013-02-05 07:21:00,40.0,27.0,-100.00,WSW,257,1.0,2.0,59,-99.99,,,-99.99,,2013-02-05 15:21:00,
2013-02-05 07:32:00,40.0,27.0,-100.00,WSW,254,1.0,2.0,60,-99.99,,,-99.99,,2013-02-05 15:32:00,
2013-02-05 07:41:00,41.0,28.0,-100.00,WSW,245,1.0,1.0,59,-99.99,,,-99.99,,2013-02-05 15:41:00,
2013-02-05 07:51:00,42.0,27.0,-100.00,WSW,257,1.0,1.0,56,-99.99,,,-99.99,,2013-02-05 15:51:00,
2013-02-05 08:01:00,44.0,28.0,-100.00,WSW,251,1.0,2.0,53,-99.99,,,-99.99,,2013-02-05 16:01:00,
2013-02-05 08:11:00,46.0,28.0,-100.00,WSW,250,1.0,1.0,49,-99.99,,,-99.99,,2013-02-05 16:11:00,
2013-02-05 08:22:00,52.0,27.0,-100.00,SW,222,1.0,2.0,38,-99.99,,,-99.99,,2013-02-05 16:22:00,
2013-02-05 08:32:00,55.0,26.0,-100.00,SW,227,2.0,3.0,33,-99.99,,,-99.99,,2013-02-05 16:32:00,
2013-02-05 08:41:00,55.0,27.0,-100.00,SW,225,3.0,5.0,34,-99.99,,,-99.99,,2013-02-05 16:41:00,
2013-02-05 08:51:00,54.0,29.0,-100.00,WSW,258,5.0,10.0,38,-99.99,,,-99.99,,2013-02-05 16:51:00,
2013-02-05 09:01:00,54.0,29.0,-100.00,WSW,258,5.0,10.0,38,-99.99,,,-99.99,,2013-02-05 17:01:00,
2013-02-05 09:11:00,54.0,28.0,-100.00,West,265,5.0,8.0,36,-99.99,,,-99.99,,2013-02-05 17:11:00,
2013-02-05 09:21:00,54.0,28.0,-100.00,West,270,5.0,8.0,36,-99.99,,,-99.99,,2013-02-05 17:21:00,
2013-02-05 09:32:00,55.0,29.0,-100.00,WSW,257,4.0,7.0,36,-99.99,,,-99.99,,2013-02-05 17:32:00,
2013-02-05 09:41:00,55.0,28.0,-100.00,WSW,258,4.0,6.0,35,-99.99,,,-99.99,,2013-02-05 17:41:00,
2013-02-05 09:52:00,55.0,27.0,-100.00,West,267,4.0,7.0,34,-99.99,,,-99.99,,2013-02-05 17:52:00,
2013-02-05 10:01:00,56.0,27.0,-100.00,West,275,4.0,6.0,33,-99.99,,,-99.99,,2013-02-05 18:01:00,
2013-02-05 10:11:00,56.0,26.0,-100.00,West,275,4.0,6.0,31,-99.99,,,-99.99,,2013-02-05 18:11:00,
2013-02-05 10:21:00,57.0,26.0,-100.00,WSW,258,4.0,7.0,30,-99.99,,,-99.99,,2013-02-05 18:21:00,
2013-02-05 10:31:00,57.0,26.0,-100.00,WSW,258,4.0,7.0,30,-99.99,,,-99.99,,2013-02-05 18:31:00,
2013-02-05 10:42:00,58.0,27.0,-100.00,West,268,4.0,6.0,30,-99.99,,,-99.99,,2013-02-05 18:42:00,
2013-02-05 10:51:00,58.0,25.0,-100.00,West,271,4.0,8.0,28,-99.99,,,-99.99,,2013-02-05 18:51:00,
2013-02-05 11:01:00,58.0,26.0,-100.00,West,277,6.0,9.0,29,-99.99,,,-99.99,,2013-02-05 19:01:00,
2013-02-05 11:11:00,58.0,27.0,-100.00,West,270,5.0,9.0,30,-99.99,,,-99.99,,2013-02-05 19:11:00,
2013-02-05 11:21:00,58.0,27.0,-100.00,West,276,6.0,13.0,30,-99.99,,,-99.99,,2013-02-05 19:21:00,
2013-02-05 11:31:00,58.0,26.0,-100.00,West,281,6.0,10.0,29,-99.99,,,-99.99,,2013-02-05 19:31:00,
2013-02-05 11:42:00,58.0,26.0,-100.00,WNW,289,6.0,11.0,29,-99.99,,,-99.99,,2013-02-05 19:42:00,
2013-02-05 11:51:00,58.0,28.0,-100.00,West,267,7.0,12.0,31,-99.99,,,-99.99,,2013-02-05 19:51:00,
2013-02-05 12:01:00,58.0,29.0,-100.00,West,276,8.0,12.0,33,-99.99,,,-99.99,,2013-02-05 20:01:00,
2013-02-05 12:11:00,58.0,31.0,-100.00,West,268,8.0,12.0,36,-99.99,,,-99.99,,2013-02-05 20:11:00,
2013-02-05 12:21:00,56.0,34.0,-100.00,West,277,9.0,13.0,43,-99.99,,,-99.99,,2013-02-05 20:21:00,
2013-02-05 12:31:00,57.0,34.0,-100.00,West,273,7.0,11.0,42,-99.99,,,-99.99,,2013-02-05 20:31:00,
2013-02-05 12:41:00,57.0,34.0,-100.00,West,264,6.0,12.0,42,-99.99,,,-99.99,,2013-02-05 20:41:00,
2013-02-05 12:52:00,58.0,33.0,-100.00,West,269,7.0,11.0,38,-99.99,,,-99.99,,2013-02-05 20:52:00,
2013-02-05 13:01:00,58.0,32.0,-100.00,West,267,7.0,12.0,37,-99.99,,,-99.99,,2013-02-05 21:01:00,
2013-02-05 13:11:00,58.0,32.0,-100.00,West,266,6.0,12.0,37,-99.99,,,-99.99,,2013-02-05 21:11:00,
2013-02-05 13:21:00,58.0,29.0,-100.00,West,265,5.0,10.0,33,-99.99,,,-99.99,,2013-02-05 21:21:00,
2013-02-05 13:31:00,59.0,30.0,-100.00,WSW,246,5.0,11.0,33,-99.99,,,-99.99,,2013-02-05 21:31:00,
2013-02-05 13:41:00,59.0,29.0,-100.00,West,259,5.0,9.0,32,-99.99,,,-99.99,,2013-02-05 21:41:00,
2013-02-05 13:51:00,60.0,31.0,-100.00,West,263,4.0,9.0,33,-99.99,,,-99.99,,2013-02-05 21:51:00,
2013-02-05 14:01:00,59.0,30.0,-100.00,West,263,6.0,11.0,33,-99.99,,,-99.99,,2013-02-05 22:01:00,
2013-02-05 14:11:00,59.0,30.0,-100.00,West,272,5.0,9.0,33,-99.99,,,-99.99,,2013-02-05 22:11:00,
2013-02-05 14:21:00,60.0,29.0,-100.00,West,269,5.0,9.0,31,-99.99,,,-99.99,,2013-02-05 22:21:00,
2013-02-05 14:31:00,60.0,32.0,-100.00,West,275,5.0,9.0,35,-99.99,,,-99.99,,2013-02-05 22:31:00,
2013-02-05 14:41:00,59.0,34.0,-100.00,West,277,8.0,11.0,39,-99.99,,,-99.99,,2013-02-05 22:41:00,
2013-02-05 14:51:00,59.0,33.0,-100.00,WNW,286,6.0,10.0,37,-99.99,,,-99.99,,2013-02-05 22:51:00,
2013-02-05 15:01:00,59.0,30.0,-100.00,West,277,6.0,10.0,33,-99.99,,,-99.99,,2013-02-05 23:01:00,
2013-02-05 15:11:00,59.0,33.0,-100.00,West,264,7.0,12.0,37,-99.99,,,-99.99,,2013-02-05 23:11:00,
2013-02-05 15:21:00,58.0,36.0,-100.00,WSW,255,6.0,12.0,43,-99.99,,,-99.99,,2013-02-05 23:21:00,
2013-02-05 15:32:00,57.0,40.0,-100.00,West,268,7.0,11.0,53,-99.99,,,-99.99,,2013-02-05 23:32:00,
2013-02-05 15:41:00,57.0,41.0,-100.00,West,264,6.0,11.0,56,-99.99,,,-99.99,,2013-02-05 23:41:00,
2013-02-05 15:52:00,56.0,41.0,-100.00,West,274,7.0,10.0,57,-99.99,,,-99.99,,2013-02-05 23:52:00,
2013-02-05 16:01:00,56.0,40.0,-100.00,West,265,7.0,11.0,55,-99.99,,,-99.99,,2013-02-06 00:01:00,
2013-02-05 16:11:00,55.0,41.0,-100.00,West,271,7.0,10.0,60,-99.99,,,-99.99,,2013-02-06 00:11:00,
2013-02-05 16:21:00,54.0,40.0,-100.00,West,261,6.0,10.0,60,-99.99,,,-99.99,,2013-02-06 00:21:00,
2013-02-05 16:31:00,53.0,42.0,-100.00,West,268,6.0,9.0,65,-99.99,,,-99.99,,2013-02-06 00:31:00,
2013-02-05 16:42:00,52.0,42.0,-100.00,West,259,5.0,9.0,69,-99.99,,,-99.99,,2013-02-06 00:42:00,
2013-02-05 16:52:00,52.0,42.0,-100.00,WSW,251,4.0,8.0,69,-99.99,,,-99.99,,2013-02-06 00:52:00,
2013-02-05 17:01:00,53.0,42.0,-100.00,WSW,251,5.0,9.0,65,-99.99,,,-99.99,,2013-02-06 01:01:00,
2013-02-05 17:11:00,53.0,42.0,-100.00,WSW,251,4.0,8.0,66,-99.99,,,-99.99,,2013-02-06 01:11:00,
2013-02-05 17:21:00,52.0,41.0,-100.00,WSW,244,5.0,9.0,66,-99.99,,,-99.99,,2013-02-06 01:21:00,
2013-02-05 17:31:00,52.0,41.0,-100.00,WSW,247,5.0,9.0,66,-99.99,,,-99.99,,2013-02-06 01:31:00,
2013-02-05 17:41:00,51.0,40.0,-100.00,WSW,247,5.0,9.0,67,-99.99,,,-99.99,,2013-02-06 01:41:00,
2013-02-05 17:52:00,51.0,41.0,-100.00,WSW,240,5.0,9.0,68,-99.99,,,-99.99,,2013-02-06 01:52:00,
2013-02-05 18:01:00,50.0,39.0,-100.00,SW,233,6.0,10.0,66,-99.99,,,-99.99,,2013-02-06 02:01:00,
2013-02-05 18:11:00,50.0,38.0,-100.00,WSW,240,5.0,10.0,63,-99.99,,,-99.99,,2013-02-06 02:11:00,
2013-02-05 18:21:00,49.0,37.0,-100.00,WSW,241,6.0,8.0,63,-99.99,,,-99.99,,2013-02-06 02:21:00,
2013-02-05 18:31:00,49.0,37.0,-100.00,WSW,251,5.0,10.0,63,-99.99,,,-99.99,,2013-02-06 02:31:00,
2013-02-05 18:41:00,49.0,37.0,-100.00,WSW,249,5.0,8.0,64,-99.99,,,-99.99,,2013-02-06 02:41:00,
2013-02-05 18:52:00,48.0,36.0,-100.00,WSW,240,5.0,10.0,62,-99.99,,,-99.99,,2013-02-06 02:52:00,
2013-02-05 19:02:00,48.0,36.0,-100.00,WSW,240,5.0,10.0,62,-99.99,,,-99.99,,2013-02-06 03:02:00,
2013-02-05 19:11:00,48.0,36.0,-100.00,WSW,246,5.0,9.0,62,-99.99,,,-99.99,,2013-02-06 03:11:00,
2013-02-05 19:21:00,48.0,36.0,-100.00,West,260,5.0,9.0,64,-99.99,,,-99.99,,2013-02-06 03:21:00,
2013-02-05 19:31:00,47.0,37.0,-100.00,West,260,6.0,10.0,67,-99.99,,,-99.99,,2013-02-06 03:31:00,
2013-02-05 19:42:00,47.0,37.0,-100.00,West,264,5.0,8.0,68,-99.99,,,-99.99,,2013-02-06 03:42:00,
2013-02-05 19:52:00,46.0,37.0,-100.00,West,266,5.0,8.0,71,-99.99,,,-99.99,,2013-02-06 03:52:00,
2013-02-05 20:01:00,45.0,38.0,-100.00,West,267,5.0,8.0,76,-99.99,,,-99.99,,2013-02-06 04:01:00,
2013-02-05 20:11:00,43.0,40.0,-100.00,West,262,6.0,9.0,90,-99.99,,,-99.99,,2013-02-06 04:11:00,
2013-02-05 20:21:00,42.0,41.0,-100.00,West,260,6.0,10.0,95,-99.99,,,-99.99,,2013-02-06 04:21:00,
2013-02-05 20:31:00,42.0,41.0,-100.00,West,264,6.0,9.0,96,-99.99,,,-99.99,,2013-02-06 04:31:00,
2013-02-05 20:41:00,42.0,41.0,-100.00,West,266,5.0,9.0,97,-99.99,,,-99.99,,2013-02-06 04:41:00,
2013-02-05 20:51:00,42.0,41.0,-100.00,West,267,4.0,6.0,97,-99.99,,,-99.99,,2013-02-06 04:51:00,
2013-02-05 21:01:00,42.0,39.0,-100.00,WSW,254,3.0,5.0,90,-99.99,,,-99.99,,2013-02-06 05:01:00,
2013-02-05 21:12:00,44.0,38.0,-100.00,WSW,255,4.0,6.0,78,-99.99,,,-99.99,,2013-02-06 05:12:00,
2013-02-05 21:22:00,46.0,35.0,-100.00,SW,234,5.0,9.0,64,-99.99,,,-99.99,,2013-02-06 05:22:00,
2013-02-05 21:31:00,47.0,33.0,-100.00,WSW,242,5.0,9.0,59,-99.99,,,-99.99,,2013-02-06 05:31:00,
2013-02-05 21:41:00,47.0,33.0,-100.00,WSW,253,6.0,10.0,57,-99.99,,,-99.99,,2013-02-06 05:41:00,
2013-02-05 21:52:00,47.0,33.0,-100.00,West,262,6.0,11.0,57,-99.99,,,-99.99,,2013-02-06 05:52:00,
2013-02-05 22:01:00,46.0,32.0,-100.00,WSW,254,6.0,12.0,58,-99.99,,,-99.99,,2013-02-06 06:01:00,
2013-02-05 22:11:00,46.0,33.0,-100.00,WSW,254,5.0,11.0,60,-99.99,,,-99.99,,2013-02-06 06:11:00,
2013-02-05 22:21:00,45.0,32.0,-100.00,WSW,246,5.0,11.0,61,-99.99,,,-99.99,,2013-02-06 06:21:00,
2013-02-05 22:31:00,45.0,31.0,-100.00,WSW,243,6.0,10.0,57,-99.99,,,-99.99,,2013-02-06 06:31:00,
2013-02-05 22:41:00,45.0,31.0,-100.00,WSW,243,6.0,10.0,57,-99.99,,,-99.99,,2013-02-06 06:41:00,
2013-02-05 22:51:00,46.0,30.0,-100.00,WSW,249,6.0,11.0,54,-99.99,,,-99.99,,2013-02-06 06:51:00,
2013-02-05 23:01:00,46.0,29.0,-100.00,WSW,254,5.0,9.0,52,-99.99,,,-99.99,,2013-02-06 07:01:00,
2013-02-05 23:11:00,46.0,30.0,-100.00,WSW,249,6.0,10.0,53,-99.99,,,-99.99,,2013-02-06 07:11:00,
2013-02-05 23:21:00,46.0,29.0,-100.00,WSW,247,7.0,13.0,52,-99.99,,,-99.99,,2013-02-06 07:21:00,
2013-02-05 23:32:00,47.0,29.0,-100.00,WSW,249,7.0,14.0,50,-99.99,,,-99.99,,2013-02-06 07:32:00,
2013-02-05 23:41:00,46.0,29.0,-100.00,WSW,252,6.0,11.0,51,-99.99,,,-99.99,,2013-02-06 07:41:00,
2013-02-05 23:51:00,46.0,29.0,-100.00,WSW,250,7.0,11.0,51,-99.99,,,-99.99,,2013-02-06 07:51:00,